BAW97X KMCO-EHAM

Flight info

Callsign BAW97X
Flight time N/A
Altitude 33000
Route FATHE4 VIYAP Q87 JROSS Q135 RAPZZ PRONI PUNGO PHITZ DWSEN KW54A PREPI KB63C MONTK VITOL NANSO N55B RAFIN 4550N 4740N 4730N 4720N 4715N SEPAL UN470 LAPEX AKEMO GIGOT GODIX ELCOB UN873 BAZOS BELDI VEKIN ADUTO N873 FERDI Y18 DENUT
Aircraft B77W/H-SDE1E2E3FGHIJ2J3J4J5M1RWXY/LB1D1

Departure

Time 2026-04-25 13:43
Airport Orlando International Airport (KMCO)

Arrival

Time N/A
Airport Amsterdam Airport Schiphol (EHAM)
Time Latitude Longitude Altitude Speed Heading
2026-04-25 12:41 28.42581 -81.29978 90 ft 0 kts 275°
2026-04-25 13:06 28.42579 -81.29963 108 ft 4 kts 308°
2026-04-25 13:06 28.42563 -81.29950 105 ft 4 kts 337°
2026-04-25 13:07 28.42555 -81.29946 107 ft 0 kts 339°
2026-04-25 13:07 28.42534 -81.29940 106 ft 4 kts
2026-04-25 13:07 28.42532 -81.29940 106 ft 0 kts
2026-04-25 13:09 28.42533 -81.29940 107 ft 0 kts
2026-04-25 13:10 28.42534 -81.29940 107 ft 0 kts
2026-04-25 13:10 28.42541 -81.29939 107 ft 3 kts
2026-04-25 13:10 28.42570 -81.29926 107 ft 3 kts 34°
2026-04-25 13:11 28.42582 -81.29913 107 ft 1 kts 49°
2026-04-25 13:11 28.42588 -81.29899 107 ft 3 kts 66°
2026-04-25 13:11 28.42592 -81.29876 107 ft 5 kts 84°
2026-04-25 13:11 28.42594 -81.29833 104 ft 7 kts 86°
2026-04-25 13:12 28.42575 -81.29801 104 ft 5 kts 147°
2026-04-25 13:12 28.42537 -81.29795 105 ft 6 kts 179°
2026-04-25 13:12 28.42495 -81.29795 105 ft 6 kts 180°
2026-04-25 13:12 28.42480 -81.29795 103 ft 6 kts 180°
2026-04-25 13:13 28.42404 -81.29794 104 ft 7 kts 179°
2026-04-25 13:13 28.42367 -81.29765 105 ft 7 kts 117°
2026-04-25 13:13 28.42363 -81.29716 104 ft 4 kts 87°
2026-04-25 13:13 28.42363 -81.29712 103 ft 0 kts 87°
2026-04-25 13:14 28.42363 -81.29708 103 ft 1 kts 87°
2026-04-25 13:14 28.42364 -81.29689 102 ft 7 kts 88°
2026-04-25 13:14 28.42366 -81.29595 100 ft 15 kts 90°
2026-04-25 13:14 28.42366 -81.29477 106 ft 15 kts 90°
2026-04-25 13:15 28.42367 -81.29360 108 ft 15 kts 89°
2026-04-25 13:15 28.42333 -81.29256 110 ft 15 kts 151°
2026-04-25 13:15 28.42288 -81.29159 109 ft 15 kts 89°
2026-04-25 13:15 28.42310 -81.29045 110 ft 15 kts 73°
2026-04-25 13:16 28.42346 -81.28928 110 ft 16 kts 71°
2026-04-25 13:16 28.42382 -81.28809 111 ft 16 kts 71°
2026-04-25 13:16 28.42419 -81.28690 110 ft 16 kts 71°
2026-04-25 13:16 28.42455 -81.28571 110 ft 16 kts 71°
2026-04-25 13:17 28.42492 -81.28452 111 ft 16 kts 70°
2026-04-25 13:17 28.42558 -81.28369 108 ft 16 kts 11°
2026-04-25 13:17 28.42670 -81.28365 107 ft 16 kts 359°
2026-04-25 13:17 28.42749 -81.28366 107 ft 18 kts 359°
2026-04-25 13:18 28.42888 -81.28367 102 ft 21 kts 360°
2026-04-25 13:18 28.43038 -81.28369 102 ft 21 kts 359°
2026-04-25 13:18 28.43185 -81.28370 102 ft 22 kts 359°
2026-04-25 13:18 28.43341 -81.28372 99 ft 23 kts 359°
2026-04-25 13:19 28.43478 -81.28373 104 ft 17 kts 359°
2026-04-25 13:19 28.43595 -81.28375 105 ft 17 kts 359°
2026-04-25 13:19 28.43711 -81.28376 107 ft 17 kts 359°
2026-04-25 13:19 28.43787 -81.28377 107 ft 17 kts 360°
2026-04-25 13:20 28.43941 -81.28378 109 ft 17 kts 359°
2026-04-25 13:20 28.44055 -81.28379 109 ft 16 kts 359°
2026-04-25 13:20 28.44109 -81.28380 108 ft 0 kts 360°
2026-04-25 13:20 28.44111 -81.28380 107 ft 0 kts 360°
2026-04-25 13:22 28.44136 -81.28380 107 ft 6 kts 359°
2026-04-25 13:22 28.44188 -81.28380 108 ft 9 kts 360°
2026-04-25 13:23 28.44242 -81.28427 109 ft 4 kts 262°
2026-04-25 13:23 28.44247 -81.28460 108 ft 4 kts 307°
2026-04-25 13:23 28.44268 -81.28469 107 ft 0 kts 349°
2026-04-25 13:30 28.44292 -81.28473 107 ft 4 kts 354°
2026-04-25 13:30 28.44316 -81.28474 107 ft 2 kts
2026-04-25 13:30 28.44317 -81.28474 107 ft 0 kts
2026-04-25 13:36 28.44320 -81.28473 107 ft 1 kts
2026-04-25 13:36 28.44336 -81.28466 108 ft 3 kts 30°
2026-04-25 13:36 28.44353 -81.28439 108 ft 5 kts 62°
2026-04-25 13:37 28.44359 -81.28397 108 ft 5 kts 91°
2026-04-25 13:37 28.44359 -81.28382 107 ft 0 kts 90°
2026-04-25 13:39 28.44359 -81.28378 105 ft 1 kts 90°
2026-04-25 13:39 28.44359 -81.28357 106 ft 4 kts 90°
2026-04-25 13:39 28.44359 -81.28311 105 ft 7 kts 90°
2026-04-25 13:40 28.44338 -81.28263 107 ft 6 kts 143°
2026-04-25 13:40 28.44308 -81.28257 107 ft 0 kts 180°
2026-04-25 13:42 28.44172 -81.28256 108 ft 57 kts 180°
2026-04-25 13:42 28.43482 -81.28249 103 ft 139 kts 179°
2026-04-25 13:42 28.42283 -81.28240 221 ft 193 kts 180°
2026-04-25 13:43 28.40918 -81.28234 888 ft 197 kts 177°
2026-04-25 13:43 28.39600 -81.27760 1542 ft 208 kts 142°
2026-04-25 13:43 28.38800 -81.26411 2239 ft 211 kts 106°
2026-04-25 13:43 28.38705 -81.24687 2486 ft 231 kts 86°
2026-04-25 13:44 28.38881 -81.22798 2813 ft 247 kts 83°
2026-04-25 13:44 28.39090 -81.20826 3356 ft 256 kts 83°
2026-04-25 13:44 28.39398 -81.18808 3782 ft 264 kts 67°
2026-04-25 13:44 28.40510 -81.17187 4299 ft 269 kts 32°
2026-04-25 13:45 28.42270 -81.16558 4992 ft 268 kts
2026-04-25 13:45 28.44129 -81.16761 5638 ft 271 kts 348°
2026-04-25 13:45 28.45973 -81.17272 6314 ft 274 kts 345°
2026-04-25 13:45 28.47821 -81.17852 6976 ft 276 kts 344°
2026-04-25 13:46 28.49668 -81.18441 7673 ft 276 kts 343°
2026-04-25 13:46 28.51526 -81.19028 8315 ft 278 kts 343°
2026-04-25 13:46 28.53399 -81.19611 8959 ft 281 kts 343°
2026-04-25 13:46 28.55294 -81.20193 9617 ft 283 kts 343°
2026-04-25 13:47 28.57202 -81.20774 10221 ft 286 kts 343°
2026-04-25 13:47 28.59180 -81.21374 10464 ft 304 kts 344°
2026-04-25 13:47 28.61294 -81.22012 10626 ft 324 kts 344°
2026-04-25 13:47 28.63541 -81.22687 10784 ft 344 kts 344°
2026-04-25 13:48 28.65922 -81.23401 11002 ft 361 kts 344°
2026-04-25 13:48 28.68384 -81.24137 11484 ft 369 kts 344°
2026-04-25 13:48 28.70858 -81.24877 12084 ft 374 kts 344°
2026-04-25 13:48 28.73385 -81.25632 12779 ft 377 kts 344°
2026-04-25 13:49 28.75930 -81.26395 13499 ft 379 kts 344°
2026-04-25 13:49 28.78491 -81.27162 14138 ft 382 kts 344°
2026-04-25 13:49 28.81078 -81.27938 14719 ft 386 kts 344°
2026-04-25 13:49 28.83704 -81.28673 15294 ft 391 kts 347°
2026-04-25 13:50 28.86411 -81.29106 15896 ft 395 kts 354°
2026-04-25 13:50 28.89170 -81.29319 16489 ft 399 kts 354°
2026-04-25 13:50 28.91953 -81.29526 17071 ft 403 kts 354°
2026-04-25 13:50 28.94765 -81.29750 17667 ft 407 kts 354°
2026-04-25 13:51 28.97603 -81.29989 18273 ft 411 kts 354°
2026-04-25 13:51 29.00467 -81.30248 18799 ft 414 kts 353°
2026-04-25 13:51 29.03341 -81.30568 19372 ft 416 kts 352°
2026-04-25 13:51 29.06229 -81.30905 19939 ft 419 kts 352°
2026-04-25 13:52 29.09139 -81.31237 20508 ft 421 kts 352°
2026-04-25 13:52 29.12069 -81.31550 21060 ft 425 kts 354°
2026-04-25 13:52 29.15031 -81.31765 21589 ft 428 kts 355°
2026-04-25 13:52 29.18024 -81.31927 22106 ft 432 kts 355°
2026-04-25 13:53 29.21039 -81.32078 22639 ft 435 kts 355°
2026-04-25 13:53 29.24072 -81.32235 23159 ft 438 kts 355°
2026-04-25 13:53 29.27129 -81.32403 23638 ft 441 kts 355°
2026-04-25 13:53 29.30208 -81.32579 24065 ft 444 kts 355°
2026-04-25 13:54 29.33263 -81.32761 24502 ft 447 kts 355°
2026-04-25 13:54 29.36379 -81.32948 24933 ft 449 kts 355°
2026-04-25 13:54 29.39515 -81.33138 25388 ft 452 kts 356°
2026-04-25 13:54 29.42666 -81.33329 25806 ft 454 kts 356°
2026-04-25 13:55 29.45837 -81.33520 26212 ft 457 kts 356°
2026-04-25 13:55 29.49026 -81.33713 26635 ft 460 kts 356°
2026-04-25 13:55 29.52226 -81.33906 27051 ft 462 kts 356°
2026-04-25 13:55 29.55444 -81.34100 27464 ft 464 kts 356°
2026-04-25 13:56 29.58679 -81.34296 27865 ft 467 kts 356°
2026-04-25 13:56 29.61935 -81.34493 28257 ft 469 kts 356°
2026-04-25 13:56 29.65208 -81.34690 28627 ft 472 kts 356°
2026-04-25 13:56 29.68497 -81.34882 28972 ft 474 kts 357°
2026-04-25 13:57 29.71798 -81.35070 29326 ft 476 kts 357°
2026-04-25 13:57 29.72873 -81.35131 29436 ft 477 kts 357°
2026-04-25 13:57 29.78448 -81.35447 30017 ft 480 kts 357°
2026-04-25 13:57 29.81780 -81.35637 30429 ft 478 kts 357°
2026-04-25 13:58 29.85063 -81.35825 30816 ft 477 kts 357°
2026-04-25 13:58 29.88365 -81.36014 31194 ft 476 kts 357°
2026-04-25 13:58 29.91675 -81.36204 31539 ft 475 kts 357°
2026-04-25 13:58 29.94982 -81.36394 31888 ft 475 kts 357°
2026-04-25 13:59 29.98284 -81.36584 32219 ft 475 kts 357°
2026-04-25 13:59 30.01582 -81.36774 32550 ft 474 kts 357°
2026-04-25 13:59 30.04875 -81.36964 32873 ft 474 kts 357°
2026-04-25 14:00 30.11510 -81.37347 32975 ft 478 kts 357°
2026-04-25 14:00 30.18144 -81.37731 32972 ft 476 kts 357°
2026-04-25 14:01 30.24739 -81.38112 32967 ft 474 kts 357°
2026-04-25 14:01 30.31315 -81.38493 32958 ft 473 kts 357°
2026-04-25 14:02 30.37878 -81.38874 32963 ft 472 kts 357°
2026-04-25 14:02 30.44449 -81.39256 32962 ft 473 kts 357°
2026-04-25 14:03 30.50985 -81.39621 32973 ft 474 kts 357°
2026-04-25 14:03 30.57582 -81.39968 32971 ft 475 kts 357°
2026-04-25 14:04 30.64188 -81.40317 32973 ft 475 kts 357°
2026-04-25 14:04 30.69691 -81.40610 32972 ft 475 kts 357°
2026-04-25 14:05 30.76299 -81.40964 32963 ft 475 kts 357°
2026-04-25 14:05 30.82908 -81.41319 32969 ft 475 kts 357°
2026-04-25 14:06 30.89514 -81.41674 32964 ft 475 kts 357°
2026-04-25 14:06 30.96118 -81.42029 32946 ft 474 kts 357°
2026-04-25 14:07 31.02706 -81.42384 32945 ft 474 kts 357°
2026-04-25 14:07 31.09262 -81.42738 32945 ft 474 kts 357°
2026-04-25 14:08 31.15845 -81.43094 32945 ft 474 kts 357°
2026-04-25 14:08 31.22442 -81.43222 32953 ft 474 kts
2026-04-25 14:09 31.28887 -81.41599 32972 ft 476 kts 18°
2026-04-25 14:09 31.34947 -81.38461 32966 ft 477 kts 24°
2026-04-25 14:10 31.40939 -81.35104 32963 ft 478 kts 24°
2026-04-25 14:10 31.46962 -81.31786 32958 ft 478 kts 24°
2026-04-25 14:11 31.53003 -81.28496 32952 ft 479 kts 24°
2026-04-25 14:11 31.59044 -81.25205 32942 ft 479 kts 24°
2026-04-25 14:12 31.65084 -81.21906 32937 ft 478 kts 24°
2026-04-25 14:12 31.71121 -81.18604 32930 ft 478 kts 24°
2026-04-25 14:13 31.77156 -81.15301 32921 ft 478 kts 24°
2026-04-25 14:13 31.83184 -81.11995 32917 ft 478 kts 24°
2026-04-25 14:14 31.89211 -81.08685 32913 ft 478 kts 24°
2026-04-25 14:14 31.95185 -81.05398 32919 ft 477 kts 24°
2026-04-25 14:15 32.01207 -81.02080 32918 ft 478 kts 24°
2026-04-25 14:15 32.07213 -80.98729 32917 ft 478 kts 24°
2026-04-25 14:16 32.13226 -80.95357 32915 ft 478 kts 24°
2026-04-25 14:16 32.19238 -80.91983 32942 ft 478 kts 24°
2026-04-25 14:17 32.25251 -80.88607 32943 ft 479 kts 24°
2026-04-25 14:17 32.31269 -80.85222 32950 ft 479 kts 24°
2026-04-25 14:18 32.37290 -80.81834 32941 ft 479 kts 24°
2026-04-25 14:18 32.43318 -80.78435 32944 ft 479 kts 25°
2026-04-25 14:19 32.49337 -80.75035 32944 ft 479 kts 25°
2026-04-25 14:19 32.55363 -80.71627 32942 ft 480 kts 25°
2026-04-25 14:20 32.61384 -80.68215 32942 ft 480 kts 25°
2026-04-25 14:20 32.67391 -80.64746 32936 ft 480 kts 28°
2026-04-25 14:21 32.72787 -80.60154 32956 ft 482 kts 40°
2026-04-25 14:21 32.77413 -80.54382 32949 ft 483 kts 48°
2026-04-25 14:22 32.81807 -80.48322 32947 ft 484 kts 48°
2026-04-25 14:22 32.86225 -80.42256 32939 ft 485 kts 48°
2026-04-25 14:23 32.90661 -80.36213 32925 ft 485 kts 48°
2026-04-25 14:23 32.95111 -80.30160 32924 ft 486 kts 48°
2026-04-25 14:24 32.99570 -80.24094 32926 ft 486 kts 47°
2026-04-25 14:24 33.04010 -80.18041 32928 ft 487 kts 48°
2026-04-25 14:25 33.08468 -80.11946 32928 ft 486 kts 48°
2026-04-25 14:25 33.12901 -80.05881 32939 ft 485 kts 48°
2026-04-25 14:26 33.17311 -79.99831 32931 ft 486 kts 48°
2026-04-25 14:26 33.21757 -79.93722 32940 ft 485 kts 48°
2026-04-25 14:27 33.26159 -79.87668 32939 ft 484 kts 48°
2026-04-25 14:27 33.30572 -79.81584 32937 ft 484 kts 48°
2026-04-25 14:28 33.34999 -79.75472 32926 ft 485 kts 48°
2026-04-25 14:28 33.39411 -79.69372 32932 ft 485 kts 48°
2026-04-25 14:29 33.43831 -79.63251 32933 ft 486 kts 48°
2026-04-25 14:29 33.48221 -79.57160 32932 ft 486 kts 48°
2026-04-25 14:30 33.52670 -79.50975 32937 ft 486 kts 48°
2026-04-25 14:30 33.59285 -79.41760 32928 ft 487 kts 49°
2026-04-25 14:31 33.63704 -79.35591 32938 ft 487 kts 49°
2026-04-25 14:31 33.68100 -79.29445 32938 ft 487 kts 49°
2026-04-25 14:32 33.72515 -79.23265 32934 ft 488 kts 49°
2026-04-25 14:32 33.76929 -79.17075 32950 ft 488 kts 49°
2026-04-25 14:33 33.81343 -79.10875 32939 ft 488 kts 49°
2026-04-25 14:33 33.85750 -79.04673 32948 ft 488 kts 49°
2026-04-25 14:34 33.90162 -78.98453 32942 ft 488 kts 49°
2026-04-25 14:34 33.94563 -78.92237 32939 ft 488 kts 49°
2026-04-25 14:35 33.98965 -78.86007 32933 ft 488 kts 49°
2026-04-25 14:35 34.03362 -78.79779 32937 ft 488 kts 49°
2026-04-25 14:36 34.07759 -78.73534 32935 ft 488 kts 49°
2026-04-25 14:36 34.12152 -78.67285 32942 ft 489 kts 49°
2026-04-25 14:37 34.16548 -78.61019 32924 ft 489 kts 49°
2026-04-25 14:37 34.20940 -78.54752 32922 ft 489 kts 49°
2026-04-25 14:38 34.25082 -78.48241 32943 ft 490 kts 57°
2026-04-25 14:38 34.28242 -78.40943 32948 ft 491 kts 64°
2026-04-25 14:39 34.31061 -78.33427 32916 ft 491 kts 65°
2026-04-25 14:39 34.33881 -78.25952 32916 ft 491 kts 64°
2026-04-25 14:40 34.36761 -78.18399 32918 ft 491 kts 64°
2026-04-25 14:40 34.39609 -78.10951 32945 ft 490 kts 64°
2026-04-25 14:41 34.42466 -78.03451 32947 ft 490 kts 64°
2026-04-25 14:41 34.45318 -77.95946 32929 ft 490 kts 64°
2026-04-25 14:42 34.47220 -77.90927 32938 ft 490 kts 64°
2026-04-25 14:42 34.51005 -77.80922 32932 ft 490 kts 64°
2026-04-25 14:43 34.53845 -77.73404 32933 ft 490 kts 64°
2026-04-25 14:43 34.57414 -77.66396 32949 ft 488 kts 51°
2026-04-25 14:44 34.62039 -77.60392 32957 ft 487 kts 42°
2026-04-25 14:44 34.66985 -77.54817 32931 ft 488 kts 42°
2026-04-25 14:45 34.71961 -77.49195 32943 ft 489 kts 42°
2026-04-25 14:45 34.76920 -77.43517 32937 ft 490 kts 42°
2026-04-25 14:46 34.81866 -77.37814 32933 ft 490 kts 43°
2026-04-25 14:46 34.86809 -77.32104 32933 ft 490 kts 43°
2026-04-25 14:47 34.90117 -77.28277 32935 ft 490 kts 43°
2026-04-25 14:47 34.96695 -77.20659 32932 ft 490 kts 43°
2026-04-25 14:48 35.01631 -77.14927 32934 ft 490 kts 43°
2026-04-25 14:48 35.06569 -77.09187 32936 ft 489 kts 43°
2026-04-25 14:49 35.11499 -77.03445 32937 ft 489 kts 43°
2026-04-25 14:49 35.16386 -76.97746 32934 ft 489 kts 43°
2026-04-25 14:50 35.21306 -76.91994 32929 ft 489 kts 43°
2026-04-25 14:50 35.26221 -76.86240 32929 ft 489 kts 43°
2026-04-25 14:51 35.30306 -76.81448 32918 ft 490 kts 43°
2026-04-25 14:51 35.35234 -76.75658 32907 ft 491 kts 43°
2026-04-25 14:52 35.40156 -76.69868 32907 ft 491 kts 42°
2026-04-25 14:52 35.44253 -76.65038 32908 ft 492 kts 42°
2026-04-25 14:53 35.50023 -76.58224 32901 ft 493 kts 42°
2026-04-25 14:53 35.54962 -76.52380 32902 ft 493 kts 42°
2026-04-25 14:54 35.59904 -76.46533 32902 ft 493 kts 41°
2026-04-25 14:54 35.65290 -76.41342 32909 ft 491 kts 32°
2026-04-25 14:55 35.70923 -76.36588 32901 ft 491 kts 32°
2026-04-25 14:55 35.76514 -76.31845 32898 ft 491 kts 32°
2026-04-25 14:56 35.82133 -76.27014 32899 ft 492 kts 32°
2026-04-25 14:56 35.87731 -76.22172 32895 ft 492 kts 32°
2026-04-25 14:57 35.93332 -76.17320 32896 ft 492 kts 32°
2026-04-25 14:57 35.98937 -76.12458 32894 ft 492 kts 32°
2026-04-25 14:58 36.04535 -76.07595 32896 ft 492 kts 32°
2026-04-25 14:58 36.10131 -76.02725 32894 ft 492 kts 32°
2026-04-25 14:59 36.15689 -75.97879 32896 ft 491 kts 32°
2026-04-25 14:59 36.21273 -75.93001 32903 ft 491 kts 32°
2026-04-25 15:00 36.26864 -75.88124 32913 ft 491 kts 31°
2026-04-25 15:00 36.32714 -75.83820 32908 ft 488 kts 26°
2026-04-25 15:01 36.38652 -75.79702 32907 ft 488 kts 26°
2026-04-25 15:01 36.44575 -75.75565 32891 ft 489 kts 26°
2026-04-25 15:02 36.50483 -75.71392 32888 ft 488 kts 26°
2026-04-25 15:02 36.56387 -75.67200 32889 ft 488 kts 26°
2026-04-25 15:03 36.62291 -75.63000 32902 ft 488 kts 26°
2026-04-25 15:03 36.68190 -75.58798 32898 ft 488 kts 26°
2026-04-25 15:04 36.74086 -75.54591 32899 ft 488 kts 26°
2026-04-25 15:04 36.79942 -75.50406 32896 ft 488 kts 26°
2026-04-25 15:05 36.85831 -75.46189 32899 ft 488 kts 26°
2026-04-25 15:06 36.94676 -75.39842 32909 ft 489 kts 26°
2026-04-25 15:06 37.00573 -75.35601 32907 ft 489 kts 26°
2026-04-25 15:07 37.06470 -75.31353 32905 ft 489 kts 26°
2026-04-25 15:07 37.12368 -75.27094 32908 ft 489 kts 26°
2026-04-25 15:08 37.18267 -75.22829 32913 ft 489 kts 26°
2026-04-25 15:08 37.24162 -75.18558 32920 ft 489 kts 26°
2026-04-25 15:09 37.30032 -75.14298 32919 ft 489 kts 26°
2026-04-25 15:09 37.38862 -75.07874 32922 ft 489 kts 25°
2026-04-25 15:10 37.44764 -75.03571 32927 ft 489 kts 25°
2026-04-25 15:11 37.53596 -74.97115 32932 ft 489 kts 25°
2026-04-25 15:11 37.59476 -74.92807 32934 ft 489 kts 25°
2026-04-25 15:12 37.68390 -74.86606 32935 ft 486 kts 22°
2026-04-25 15:12 37.72383 -74.84056 32943 ft 486 kts 21°
2026-04-25 15:13 37.83439 -74.76986 32950 ft 486 kts 22°
2026-04-25 15:14 37.89471 -74.73076 32954 ft 487 kts 22°
2026-04-25 15:14 37.95496 -74.69155 32957 ft 487 kts 22°
2026-04-25 15:15 38.01515 -74.65231 32963 ft 487 kts 21°
2026-04-25 15:15 38.07536 -74.61300 32970 ft 487 kts 21°
2026-04-25 15:16 38.13566 -74.57357 32977 ft 487 kts 21°
2026-04-25 15:16 38.22611 -74.51428 32982 ft 487 kts 21°
2026-04-25 15:17 38.31651 -74.45486 32991 ft 488 kts 21°
2026-04-25 15:18 38.37685 -74.41510 32995 ft 488 kts 21°
2026-04-25 15:18 38.46721 -74.35542 32997 ft 488 kts 21°
2026-04-25 15:19 38.50716 -74.32898 33010 ft 487 kts 21°
2026-04-25 15:19 38.58768 -74.27559 33013 ft 487 kts 21°
2026-04-25 15:20 38.64779 -74.23564 33016 ft 487 kts 21°
2026-04-25 15:20 38.70787 -74.19564 33019 ft 487 kts 21°
2026-04-25 15:21 38.76764 -74.15577 33018 ft 487 kts 21°
2026-04-25 15:21 38.82770 -74.11562 33039 ft 487 kts 21°
2026-04-25 15:22 38.88779 -74.07538 33022 ft 487 kts 21°
2026-04-25 15:22 38.94785 -74.03508 33034 ft 487 kts 21°
2026-04-25 15:23 39.00754 -73.99379 33043 ft 491 kts 25°
2026-04-25 15:23 39.06418 -73.94381 33060 ft 494 kts 28°
2026-04-25 15:24 39.12023 -73.89235 33054 ft 495 kts 28°
2026-04-25 15:24 39.15748 -73.85832 33056 ft 495 kts 28°
2026-04-25 15:25 39.23238 -73.79040 33059 ft 494 kts 28°
2026-04-25 15:25 39.28870 -73.73940 33071 ft 494 kts 28°
2026-04-25 15:26 39.34498 -73.68832 33065 ft 494 kts 28°
2026-04-25 15:26 39.40115 -73.63720 33067 ft 494 kts 28°
2026-04-25 15:27 39.45732 -73.58597 33079 ft 493 kts 28°
2026-04-25 15:28 39.54146 -73.50904 33086 ft 493 kts 28°
2026-04-25 15:28 39.59718 -73.45798 33073 ft 493 kts 28°
2026-04-25 15:29 39.65308 -73.40662 33077 ft 492 kts 28°
2026-04-25 15:29 39.70894 -73.35521 33085 ft 491 kts 28°
2026-04-25 15:30 39.74622 -73.32086 33093 ft 491 kts 28°
2026-04-25 15:30 39.81689 -73.24542 33103 ft 502 kts 39°
2026-04-25 15:31 39.86113 -73.17386 33103 ft 511 kts 47°
2026-04-25 15:31 39.90224 -73.09836 33106 ft 511 kts 47°
2026-04-25 15:32 39.94339 -73.02274 33106 ft 511 kts 47°
2026-04-25 15:32 39.98477 -72.94752 33111 ft 510 kts 47°
2026-04-25 15:33 40.04663 -72.83537 33100 ft 510 kts 47°
2026-04-25 15:33 40.08794 -72.76022 33115 ft 509 kts 47°
2026-04-25 15:34 40.12918 -72.68497 33116 ft 509 kts 47°
2026-04-25 15:34 40.15672 -72.63462 33120 ft 509 kts 47°
2026-04-25 15:35 40.23187 -72.49680 33125 ft 508 kts 47°
2026-04-25 15:36 40.29326 -72.38375 33132 ft 508 kts 46°
2026-04-25 15:36 40.33414 -72.30825 33141 ft 508 kts 46°
2026-04-25 15:37 40.36831 -72.24501 33131 ft 507 kts 46°
2026-04-25 15:37 40.40906 -72.16940 33137 ft 507 kts 46°
2026-04-25 15:38 40.44972 -72.09379 33135 ft 507 kts 46°
2026-04-25 15:38 40.48977 -72.01825 33133 ft 509 kts 49°
2026-04-25 15:39 40.52265 -71.93468 33142 ft 520 kts 59°
2026-04-25 15:39 40.55040 -71.84673 33144 ft 520 kts 60°
2026-04-25 15:40 40.57358 -71.77300 33134 ft 520 kts 59°
2026-04-25 15:40 40.60608 -71.67126 33143 ft 518 kts 59°
2026-04-25 15:41 40.63415 -71.58387 33154 ft 518 kts 59°
2026-04-25 15:41 40.66209 -71.49657 33152 ft 517 kts 59°
2026-04-25 15:42 40.68995 -71.40914 33158 ft 517 kts 59°
2026-04-25 15:42 40.71768 -71.32179 33174 ft 517 kts 59°
2026-04-25 15:43 40.73154 -71.27804 33449 ft 518 kts 59°
2026-04-25 15:43 40.74538 -71.23425 33897 ft 514 kts 59°
2026-04-25 15:43 40.75908 -71.19078 34303 ft 511 kts 59°
2026-04-25 15:43 40.77268 -71.14761 34655 ft 509 kts 59°
2026-04-25 15:44 40.78628 -71.10446 34935 ft 508 kts 59°
2026-04-25 15:44 40.79971 -71.06178 35075 ft 510 kts 59°
2026-04-25 15:44 40.82586 -70.97431 35142 ft 514 kts 62°
2026-04-25 15:45 40.84911 -70.88526 35143 ft 512 kts 63°
2026-04-25 15:45 40.86814 -70.81060 35148 ft 510 kts 63°
2026-04-25 15:46 40.89458 -70.70763 35149 ft 509 kts 62°
2026-04-25 15:46 40.91748 -70.61903 35148 ft 509 kts 62°
2026-04-25 15:47 40.94035 -70.53043 35149 ft 510 kts 62°
2026-04-25 15:47 40.96320 -70.44152 35138 ft 511 kts 62°
2026-04-25 15:48 40.98598 -70.35247 35150 ft 511 kts 62°
2026-04-25 15:48 41.00872 -70.26324 35153 ft 512 kts 62°
2026-04-25 15:49 41.03139 -70.17390 35152 ft 512 kts 62°
2026-04-25 15:49 41.05402 -70.08443 35152 ft 512 kts 62°
2026-04-25 15:50 41.07655 -69.99499 35149 ft 512 kts 62°
2026-04-25 15:50 41.09902 -69.90545 35148 ft 511 kts 62°
2026-04-25 15:51 41.11763 -69.83110 35147 ft 511 kts 62°
2026-04-25 15:51 41.14354 -69.72713 35145 ft 510 kts 62°
2026-04-25 15:52 41.16576 -69.63762 35147 ft 510 kts 62°
2026-04-25 15:52 41.18787 -69.54821 35150 ft 510 kts 62°
2026-04-25 15:53 41.20993 -69.45865 35147 ft 510 kts 62°
2026-04-25 15:53 41.23192 -69.36904 35143 ft 510 kts 62°
2026-04-25 15:54 41.25384 -69.27938 35145 ft 510 kts 62°
2026-04-25 15:54 41.27554 -69.19026 35149 ft 510 kts 62°
2026-04-25 15:55 41.29730 -69.10056 35154 ft 509 kts 62°
2026-04-25 15:55 41.31898 -69.01081 35147 ft 509 kts 62°
2026-04-25 15:56 41.34056 -68.92117 35138 ft 508 kts 62°
2026-04-25 15:56 41.36201 -68.83165 35136 ft 507 kts 62°
2026-04-25 15:57 41.38335 -68.74231 35132 ft 506 kts 62°
2026-04-25 15:57 41.40459 -68.65303 35132 ft 505 kts 62°
2026-04-25 15:58 41.42574 -68.56377 35133 ft 504 kts 62°
2026-04-25 15:58 41.44665 -68.47522 35136 ft 504 kts 62°
2026-04-25 15:59 41.46763 -68.38601 35126 ft 504 kts 61°
2026-04-25 15:59 41.48854 -68.29676 35120 ft 504 kts 61°
2026-04-25 16:00 41.50250 -68.23696 35123 ft 504 kts 61°
2026-04-25 16:00 41.53020 -68.11786 35123 ft 505 kts 61°
2026-04-25 16:01 41.55094 -68.02823 35127 ft 506 kts 61°
2026-04-25 16:01 41.57166 -67.93838 35125 ft 506 kts 61°
2026-04-25 16:02 41.59231 -67.84842 35118 ft 507 kts 62°
2026-04-25 16:02 41.61292 -67.75827 35120 ft 507 kts 62°
2026-04-25 16:03 41.63348 -67.66798 35116 ft 507 kts 62°
2026-04-25 16:03 41.65385 -67.57818 35114 ft 508 kts 62°
2026-04-25 16:04 41.67427 -67.48776 35106 ft 508 kts 62°
2026-04-25 16:04 41.69463 -67.39726 35101 ft 508 kts 62°
2026-04-25 16:05 41.71492 -67.30674 35091 ft 508 kts 62°
2026-04-25 16:06 41.74530 -67.17044 35107 ft 510 kts 63°
2026-04-25 16:06 41.76552 -67.07921 35101 ft 511 kts 63°
2026-04-25 16:07 41.78622 -66.98825 35098 ft 506 kts 59°
2026-04-25 16:07 41.81231 -66.90136 35092 ft 501 kts 57°
2026-04-25 16:08 41.83927 -66.81524 35091 ft 501 kts 57°
2026-04-25 16:08 41.86603 -66.72881 35085 ft 502 kts 57°
2026-04-25 16:09 41.89252 -66.64203 35088 ft 502 kts 58°
2026-04-25 16:09 41.91883 -66.55516 35084 ft 503 kts 58°
2026-04-25 16:10 41.94491 -66.46876 35073 ft 503 kts 59°
2026-04-25 16:10 41.97112 -66.38169 35067 ft 503 kts 59°
2026-04-25 16:11 41.99728 -66.29455 35071 ft 503 kts 59°
2026-04-25 16:11 42.02339 -66.20725 35071 ft 503 kts 60°
2026-04-25 16:12 42.04941 -66.12000 35069 ft 502 kts 60°
2026-04-25 16:12 42.07539 -66.03255 35058 ft 502 kts 60°
2026-04-25 16:13 42.10125 -65.94524 35058 ft 502 kts 61°
2026-04-25 16:13 42.12703 -65.85788 35049 ft 502 kts 61°
2026-04-25 16:14 42.15255 -65.77114 35048 ft 501 kts 61°
2026-04-25 16:14 42.17818 -65.68371 35044 ft 501 kts 62°
2026-04-25 16:15 42.20374 -65.59624 35042 ft 501 kts 62°
2026-04-25 16:15 42.22924 -65.50868 35033 ft 501 kts 62°
2026-04-25 16:16 42.25466 -65.42106 35029 ft 501 kts 62°
2026-04-25 16:16 42.28001 -65.33341 35026 ft 501 kts 63°
2026-04-25 16:17 42.30529 -65.24568 35027 ft 500 kts 63°
2026-04-25 16:17 42.33045 -65.15805 35017 ft 500 kts 63°
2026-04-25 16:18 42.35555 -65.07037 35023 ft 499 kts 63°
2026-04-25 16:18 42.38052 -64.98279 35010 ft 499 kts 63°
2026-04-25 16:19 42.40540 -64.89529 35008 ft 498 kts 64°
2026-04-25 16:19 42.43018 -64.80780 35002 ft 498 kts 64°
2026-04-25 16:20 42.46709 -64.67694 34993 ft 498 kts 64°
2026-04-25 16:21 42.50404 -64.54525 34997 ft 499 kts 64°
2026-04-25 16:21 42.52860 -64.45730 34991 ft 499 kts 64°
2026-04-25 16:22 42.54900 -64.38404 34990 ft 500 kts 65°
2026-04-25 16:22 42.57351 -64.29573 34991 ft 500 kts 65°
2026-04-25 16:23 42.59795 -64.20732 34987 ft 501 kts 65°
2026-04-25 16:23 42.62237 -64.11871 34980 ft 501 kts 65°
2026-04-25 16:24 42.64669 -64.03010 34981 ft 500 kts 65°
2026-04-25 16:24 42.67094 -63.94147 34972 ft 500 kts 66°
2026-04-25 16:25 42.69492 -63.85350 34975 ft 499 kts 66°
2026-04-25 16:25 42.71897 -63.76493 34968 ft 498 kts 66°
2026-04-25 16:26 42.74302 -63.67609 34964 ft 498 kts 66°
2026-04-25 16:26 42.76680 -63.58789 34951 ft 497 kts 66°
2026-04-25 16:27 42.79053 -63.49956 34951 ft 496 kts 66°
2026-04-25 16:27 42.81411 -63.41148 34949 ft 496 kts 66°
2026-04-25 16:28 42.83772 -63.32296 34951 ft 496 kts 66°
2026-04-25 16:28 42.86106 -63.23514 34939 ft 496 kts 66°
2026-04-25 16:29 42.88459 -63.14629 34942 ft 496 kts 67°
2026-04-25 16:29 42.90786 -63.05807 34927 ft 496 kts 67°
2026-04-25 16:30 42.93117 -62.96939 34930 ft 496 kts 67°
2026-04-25 16:30 42.95445 -62.88051 34918 ft 496 kts 67°
2026-04-25 16:31 42.97763 -62.79168 34916 ft 496 kts 67°
2026-04-25 16:31 43.00067 -62.70301 34907 ft 496 kts 67°
2026-04-25 16:32 43.02356 -62.61463 34912 ft 496 kts 68°
2026-04-25 16:32 43.04652 -62.52564 34904 ft 496 kts 68°
2026-04-25 16:33 43.06944 -62.43649 34900 ft 496 kts 68°
2026-04-25 16:33 43.09228 -62.34729 34896 ft 496 kts 68°
2026-04-25 16:34 43.11505 -62.25804 34894 ft 496 kts 68°
2026-04-25 16:34 43.13773 -62.16878 34873 ft 496 kts 68°
2026-04-25 16:35 43.16030 -62.07963 34879 ft 496 kts 68°
2026-04-25 16:35 43.18284 -61.99028 34867 ft 496 kts 68°
2026-04-25 16:36 43.20516 -61.90142 34871 ft 496 kts 68°
2026-04-25 16:36 43.22755 -61.81199 34859 ft 496 kts 69°
2026-04-25 16:37 43.24985 -61.72255 34858 ft 496 kts 69°
2026-04-25 16:37 43.27208 -61.63302 34847 ft 496 kts 69°
2026-04-25 16:38 43.29426 -61.54338 34851 ft 496 kts 69°
2026-04-25 16:38 43.31638 -61.45361 34837 ft 496 kts 69°
2026-04-25 16:39 43.33843 -61.36378 34837 ft 496 kts 69°
2026-04-25 16:39 43.36039 -61.27400 34825 ft 496 kts 69°
2026-04-25 16:40 43.38232 -61.18396 34831 ft 496 kts 69°
2026-04-25 16:40 43.40417 -61.09390 34821 ft 497 kts 69°
2026-04-25 16:41 43.42595 -61.00375 34815 ft 497 kts 70°
2026-04-25 16:41 43.45839 -60.86886 34810 ft 497 kts 70°
2026-04-25 16:42 43.48003 -60.77838 34796 ft 497 kts 70°
2026-04-25 16:42 43.50160 -60.68789 34794 ft 497 kts 70°
2026-04-25 16:43 43.52309 -60.59732 34791 ft 497 kts 70°
2026-04-25 16:43 43.54451 -60.50671 34791 ft 497 kts 70°
2026-04-25 16:44 43.56591 -60.41583 34785 ft 498 kts 70°
2026-04-25 16:44 43.58706 -60.32561 34779 ft 498 kts 70°
2026-04-25 16:45 43.60830 -60.23464 34776 ft 498 kts 70°
2026-04-25 16:45 43.62947 -60.14359 34774 ft 498 kts 70°
2026-04-25 16:46 43.65055 -60.05258 34768 ft 498 kts 70°
2026-04-25 16:46 43.66464 -59.99154 34760 ft 498 kts 71°
2026-04-25 16:47 43.69253 -59.87017 34758 ft 498 kts 71°
2026-04-25 16:47 43.71341 -59.77893 34751 ft 498 kts 71°
2026-04-25 16:48 43.73419 -59.68768 34747 ft 498 kts 71°
2026-04-25 16:48 43.75479 -59.59684 34735 ft 498 kts 71°
2026-04-25 16:49 43.77544 -59.50543 34733 ft 498 kts 71°
2026-04-25 16:49 43.79601 -59.41395 34727 ft 498 kts 71°
2026-04-25 16:50 43.81652 -59.32240 34726 ft 498 kts 71°
2026-04-25 16:50 43.83693 -59.23088 34713 ft 497 kts 71°
2026-04-25 16:51 43.85729 -59.13918 34714 ft 497 kts 71°
2026-04-25 16:51 43.87084 -59.07792 34709 ft 497 kts 71°
2026-04-25 16:52 43.89774 -58.95583 34706 ft 498 kts 71°
2026-04-25 16:52 43.91788 -58.86393 34700 ft 498 kts 71°
2026-04-25 16:53 43.94794 -58.72605 34696 ft 498 kts 72°
2026-04-25 16:54 43.96791 -58.63396 34691 ft 498 kts 72°
2026-04-25 16:54 43.98778 -58.54192 34684 ft 498 kts 72°
2026-04-25 16:55 44.00761 -58.44971 34682 ft 499 kts 72°
2026-04-25 16:55 44.02740 -58.35725 34679 ft 499 kts 72°
2026-04-25 16:56 44.04714 -58.26461 34672 ft 500 kts 72°
2026-04-25 16:56 44.06679 -58.17196 34664 ft 500 kts 72°
2026-04-25 16:57 44.08642 -58.07898 34663 ft 500 kts 73°
2026-04-25 16:57 44.10593 -57.98612 34649 ft 500 kts 73°
2026-04-25 16:58 44.12541 -57.89306 34651 ft 500 kts 73°
2026-04-25 16:58 44.14463 -57.80081 34638 ft 499 kts 73°
2026-04-25 16:59 44.16390 -57.70788 34637 ft 500 kts 73°
2026-04-25 16:59 44.18309 -57.61488 34634 ft 500 kts 73°
2026-04-25 17:00 44.20224 -57.52169 34631 ft 500 kts 73°
2026-04-25 17:00 44.22131 -57.42844 34624 ft 500 kts 73°
2026-04-25 17:01 44.24028 -57.33527 34619 ft 499 kts 74°
2026-04-25 17:01 44.25913 -57.24223 34610 ft 498 kts 74°
2026-04-25 17:02 44.27790 -57.14919 34608 ft 498 kts 74°
2026-04-25 17:02 44.29656 -57.05622 34601 ft 497 kts 74°
2026-04-25 17:03 44.31514 -56.96323 34600 ft 497 kts 74°
2026-04-25 17:03 44.33366 -56.87014 34589 ft 497 kts 75°
2026-04-25 17:04 44.35209 -56.77700 34585 ft 497 kts 75°
2026-04-25 17:04 44.37044 -56.68384 34581 ft 497 kts 75°
2026-04-25 17:05 44.38870 -56.59070 34579 ft 497 kts 75°
2026-04-25 17:05 44.41585 -56.45142 34568 ft 497 kts 75°
2026-04-25 17:06 44.43390 -56.35826 34563 ft 496 kts 75°
2026-04-25 17:06 44.45187 -56.26503 34558 ft 495 kts 75°
2026-04-25 17:07 44.46675 -56.18752 34551 ft 495 kts 75°
2026-04-25 17:07 44.48457 -56.09435 34546 ft 495 kts 75°
2026-04-25 17:08 44.49787 -55.99992 34548 ft 494 kts 81°
2026-04-25 17:08 44.50800 -55.90459 34537 ft 495 kts 82°
2026-04-25 17:09 44.51799 -55.80948 34363 ft 491 kts 82°
2026-04-25 17:09 44.52306 -55.76206 34075 ft 492 kts 82°
2026-04-25 17:09 44.52816 -55.71469 33762 ft 493 kts 82°
2026-04-25 17:10 44.53328 -55.66727 33588 ft 491 kts 81°
2026-04-25 17:10 44.53840 -55.61995 33567 ft 492 kts 82°
2026-04-25 17:10 44.54863 -55.52471 33523 ft 495 kts 82°
2026-04-25 17:11 44.55871 -55.42991 33518 ft 495 kts 82°
2026-04-25 17:11 44.56880 -55.33428 33508 ft 496 kts 82°
2026-04-25 17:12 44.57880 -55.23859 33499 ft 495 kts 82°
2026-04-25 17:12 44.58871 -55.14303 33497 ft 495 kts 82°
2026-04-25 17:13 44.59694 -55.06295 33493 ft 495 kts 82°
2026-04-25 17:13 44.60826 -54.95197 33480 ft 494 kts 82°
2026-04-25 17:14 44.61791 -54.85649 33480 ft 494 kts 82°
2026-04-25 17:14 44.62748 -54.76097 33481 ft 494 kts 82°
2026-04-25 17:15 44.63697 -54.66541 33472 ft 494 kts 82°
2026-04-25 17:15 44.64631 -54.57054 33468 ft 494 kts 83°
2026-04-25 17:16 44.65564 -54.47496 33461 ft 494 kts 83°
2026-04-25 17:16 44.66490 -54.37929 33456 ft 494 kts 83°
2026-04-25 17:17 44.67409 -54.28338 33450 ft 495 kts 83°
2026-04-25 17:17 44.68320 -54.18751 33451 ft 495 kts 83°
2026-04-25 17:18 44.69225 -54.09142 33443 ft 496 kts 83°
2026-04-25 17:18 44.70122 -53.99523 33442 ft 497 kts 83°
2026-04-25 17:19 44.71012 -53.89888 33426 ft 497 kts 83°
2026-04-25 17:19 44.71895 -53.80242 33426 ft 497 kts 83°
2026-04-25 17:20 44.72763 -53.70662 33414 ft 497 kts 84°
2026-04-25 17:20 44.73628 -53.61034 33409 ft 496 kts 84°
2026-04-25 17:21 44.74484 -53.51410 33402 ft 495 kts 84°
2026-04-25 17:21 44.75329 -53.41807 33398 ft 494 kts 84°
2026-04-25 17:22 44.76026 -53.33827 33397 ft 494 kts 84°
2026-04-25 17:22 44.76996 -53.22601 33395 ft 494 kts 84°
2026-04-25 17:23 44.77813 -53.13042 33391 ft 495 kts 84°
2026-04-25 17:23 44.78627 -53.03413 33386 ft 496 kts 84°
2026-04-25 17:24 44.79436 -52.93760 33375 ft 496 kts 85°
2026-04-25 17:24 44.80237 -52.84098 33378 ft 497 kts 85°
2026-04-25 17:25 44.81030 -52.74429 33374 ft 498 kts 85°
2026-04-25 17:25 44.81817 -52.64733 33367 ft 498 kts 83°
2026-04-25 17:26 44.82594 -52.55023 33362 ft 499 kts 81°
2026-04-25 17:26 44.83369 -52.45295 33360 ft 500 kts 81°
2026-04-25 17:27 44.84133 -52.35584 33353 ft 502 kts 81°
2026-04-25 17:27 44.84642 -52.29037 33356 ft 503 kts 81°
2026-04-25 17:28 44.85647 -52.15975 33347 ft 504 kts 82°
2026-04-25 17:28 44.86392 -52.06155 33338 ft 504 kts 82°
2026-04-25 17:29 44.87131 -51.96319 33341 ft 504 kts 82°
2026-04-25 17:29 44.87861 -51.86486 33332 ft 504 kts 82°
2026-04-25 17:30 44.88582 -51.76646 33332 ft 504 kts 82°
2026-04-25 17:30 44.89290 -51.66808 33325 ft 504 kts 82°
2026-04-25 17:31 44.89986 -51.57021 33322 ft 504 kts 83°
2026-04-25 17:31 44.90678 -51.47168 33321 ft 505 kts 83°
2026-04-25 17:32 44.91363 -51.37292 33316 ft 506 kts 83°
2026-04-25 17:32 44.92042 -51.27395 33311 ft 507 kts 83°
2026-04-25 17:33 44.92712 -51.17487 33315 ft 507 kts 83°
2026-04-25 17:33 44.93375 -51.07567 33308 ft 508 kts 83°
2026-04-25 17:34 44.94031 -50.97632 33300 ft 508 kts 83°
2026-04-25 17:34 44.94676 -50.87689 33295 ft 509 kts 84°
2026-04-25 17:35 44.95311 -50.77799 33295 ft 509 kts 84°
2026-04-25 17:35 44.95942 -50.67825 33304 ft 511 kts 84°
2026-04-25 17:36 44.96567 -50.57807 33302 ft 512 kts 84°
2026-04-25 17:36 44.97185 -50.47760 33293 ft 514 kts 84°
2026-04-25 17:37 44.97794 -50.37698 33300 ft 515 kts 85°
2026-04-25 17:37 44.98397 -50.27608 33294 ft 516 kts 85°
2026-04-25 17:38 44.98792 -50.20919 33291 ft 516 kts 85°
2026-04-25 17:38 44.99114 -50.07390 33277 ft 515 kts 101°
2026-04-25 17:39 44.98112 -49.97511 33298 ft 506 kts 88°
2026-04-25 17:39 44.98764 -49.92634 33296 ft 510 kts 68°
2026-04-25 17:39 45.00220 -49.88144 33302 ft 511 kts 63°
2026-04-25 17:40 45.03249 -49.79048 33268 ft 508 kts 66°
2026-04-25 17:40 45.05867 -49.69742 33290 ft 512 kts 70°
2026-04-25 17:41 45.08236 -49.60261 33293 ft 512 kts 71°
2026-04-25 17:41 45.10546 -49.50729 33268 ft 511 kts 71°
2026-04-25 17:42 45.12870 -49.41179 33288 ft 512 kts 71°
2026-04-25 17:42 45.15195 -49.31682 33289 ft 514 kts 71°
2026-04-25 17:43 45.17547 -49.22060 33274 ft 516 kts 71°
2026-04-25 17:43 45.19867 -49.12530 33285 ft 513 kts 71°
2026-04-25 17:44 45.22196 -49.02915 33269 ft 515 kts 72°
2026-04-25 17:44 45.24511 -48.93318 33287 ft 516 kts 72°
2026-04-25 17:45 45.26046 -48.86928 33276 ft 515 kts 72°
2026-04-25 17:45 45.29131 -48.74027 33294 ft 519 kts 72°
2026-04-25 17:46 45.31417 -48.64425 33278 ft 512 kts 72°
2026-04-25 17:46 45.33721 -48.54704 33302 ft 519 kts 72°
2026-04-25 17:47 45.35991 -48.45080 33294 ft 516 kts 72°
2026-04-25 17:47 45.38280 -48.35334 33298 ft 518 kts 73°
2026-04-25 17:48 45.41692 -48.20735 33296 ft 522 kts 73°
2026-04-25 17:49 45.43975 -48.10908 33294 ft 522 kts 73°
2026-04-25 17:49 45.46231 -48.01156 33309 ft 517 kts 73°
2026-04-25 17:50 45.48487 -47.91352 33313 ft 522 kts 73°
2026-04-25 17:50 45.50720 -47.81612 33310 ft 518 kts 73°
2026-04-25 17:51 45.52963 -47.71778 33321 ft 521 kts 74°
2026-04-25 17:51 45.55196 -47.61950 33332 ft 521 kts 74°
2026-04-25 17:52 45.57419 -47.52117 33328 ft 521 kts 74°
2026-04-25 17:52 45.59639 -47.42252 33336 ft 520 kts 74°
2026-04-25 17:53 45.61847 -47.32397 33344 ft 521 kts 74°
2026-04-25 17:53 45.63673 -47.24212 33345 ft 519 kts 75°
2026-04-25 17:54 45.66228 -47.12703 33368 ft 526 kts 75°
2026-04-25 17:54 45.68443 -47.02670 33354 ft 529 kts 75°
2026-04-25 17:55 45.70650 -46.92635 33363 ft 529 kts 75°
2026-04-25 17:55 45.72491 -46.84231 33362 ft 528 kts 75°
2026-04-25 17:56 45.74662 -46.74271 33371 ft 527 kts 75°
2026-04-25 17:56 45.76838 -46.64239 33382 ft 527 kts 75°
2026-04-25 17:57 45.79003 -46.54205 33385 ft 527 kts 76°
2026-04-25 17:57 45.81163 -46.44151 33394 ft 528 kts 76°
2026-04-25 17:58 45.83314 -46.34088 33398 ft 528 kts 76°
2026-04-25 17:58 45.85462 -46.23992 33403 ft 529 kts 76°
2026-04-25 17:59 45.87602 -46.13879 33415 ft 530 kts 76°
2026-04-25 17:59 45.89737 -46.03745 33419 ft 530 kts 76°
2026-04-25 18:00 45.91864 -45.93595 33428 ft 531 kts 77°
2026-04-25 18:00 45.93969 -45.83503 33428 ft 531 kts 77°
2026-04-25 18:01 45.96079 -45.73334 33441 ft 531 kts 77°
2026-04-25 18:01 45.98180 -45.63158 33444 ft 531 kts 77°
2026-04-25 18:02 46.00272 -45.52976 33444 ft 531 kts 77°
2026-04-25 18:02 46.02356 -45.42780 33451 ft 531 kts 77°
2026-04-25 18:03 46.04430 -45.32578 33453 ft 532 kts 77°
2026-04-25 18:03 46.06499 -45.22349 33461 ft 532 kts 77°
2026-04-25 18:04 46.08561 -45.12101 33467 ft 533 kts 78°
2026-04-25 18:04 46.10618 -45.01826 33472 ft 534 kts 78°
2026-04-25 18:05 46.12669 -44.91529 33475 ft 535 kts 78°
2026-04-25 18:05 46.14712 -44.81215 33484 ft 535 kts 78°
2026-04-25 18:06 46.16748 -44.70882 33491 ft 536 kts 78°
2026-04-25 18:06 46.18777 -44.60533 33490 ft 536 kts 78°
2026-04-25 18:07 46.20797 -44.50174 33497 ft 536 kts 78°
2026-04-25 18:07 46.22808 -44.39805 33499 ft 536 kts 78°
2026-04-25 18:08 46.24806 -44.29445 33504 ft 535 kts 79°
2026-04-25 18:08 46.26782 -44.19144 33505 ft 535 kts 79°
2026-04-25 18:09 46.28759 -44.08780 33505 ft 535 kts 79°
2026-04-25 18:09 46.30727 -43.98408 33506 ft 535 kts 79°
2026-04-25 18:10 46.32688 -43.88019 33505 ft 534 kts 79°
2026-04-25 18:10 46.34639 -43.77622 33513 ft 534 kts 79°
2026-04-25 18:11 46.36577 -43.67238 33524 ft 534 kts 80°
2026-04-25 18:11 46.38507 -43.56837 33521 ft 535 kts 80°
2026-04-25 18:12 46.40429 -43.46423 33511 ft 535 kts 80°
2026-04-25 18:12 46.42341 -43.36009 33519 ft 534 kts 80°
2026-04-25 18:13 46.44229 -43.25661 33524 ft 534 kts 81°
2026-04-25 18:13 46.46118 -43.15250 33529 ft 534 kts 81°
2026-04-25 18:14 46.48473 -42.99662 33485 ft 516 kts 91°
2026-04-25 18:14 46.49892 -42.89498 33518 ft 512 kts 84°
2026-04-25 18:15 46.51937 -42.79659 33545 ft 506 kts 83°
2026-04-25 18:15 46.53916 -42.69917 33526 ft 498 kts 85°
2026-04-25 18:16 46.55686 -42.60267 33525 ft 491 kts 86°
2026-04-25 18:17 46.58168 -42.45954 33543 ft 483 kts 87°
2026-04-25 18:17 46.59781 -42.36595 33539 ft 478 kts 88°
2026-04-25 18:18 46.61389 -42.27268 33526 ft 473 kts 88°
2026-04-25 18:18 46.62979 -42.18015 33536 ft 469 kts 88°
2026-04-25 18:19 46.64547 -42.08848 33539 ft 464 kts 88°
2026-04-25 18:19 46.66093 -41.99756 33533 ft 460 kts 89°
2026-04-25 18:20 46.67619 -41.90737 33535 ft 456 kts 89°
2026-04-25 18:20 46.69124 -41.81804 33540 ft 452 kts 89°
2026-04-25 18:21 46.70608 -41.72946 33539 ft 448 kts 90°
2026-04-25 18:21 46.72074 -41.64157 33540 ft 443 kts 90°
2026-04-25 18:22 46.73508 -41.55508 33545 ft 441 kts 90°